TimeCDT,TemperatureF,Dew PointF,Humidity,Sea Level PressureIn,VisibilityMPH,Wind Direction,Wind SpeedMPH,Gust SpeedMPH,PrecipitationIn,Events,Conditions,WindDirDegrees,DateUTC
12:52 AM,36.0,28.9,76,30.12,10.0,Calm,Calm,-,N/A,,Partly Cloudy,0,2013-04-16 05:52:00
1:52 AM,37.0,30.0,76,30.12,10.0,NNW,9.2,-,N/A,,Mostly Cloudy,330,2013-04-16 06:52:00
2:52 AM,37.0,30.0,76,30.11,10.0,North,11.5,-,N/A,,Scattered Clouds,350,2013-04-16 07:52:00
3:52 AM,36.0,28.0,73,30.15,10.0,NNW,9.2,-,N/A,,Partly Cloudy,340,2013-04-16 08:52:00
4:52 AM,36.0,28.0,73,30.17,10.0,North,6.9,-,N/A,,Overcast,350,2013-04-16 09:52:00
5:52 AM,36.0,28.9,76,30.18,10.0,NNW,6.9,-,N/A,,Overcast,340,2013-04-16 10:52:00
6:52 AM,36.0,28.9,76,30.19,10.0,North,8.1,-,N/A,,Overcast,360,2013-04-16 11:52:00
7:52 AM,36.0,28.9,76,30.23,10.0,North,6.9,-,N/A,,Overcast,350,2013-04-16 12:52:00
8:52 AM,37.0,30.0,76,30.25,10.0,North,5.8,-,N/A,,Overcast,350,2013-04-16 13:52:00
9:52 AM,37.9,28.9,70,30.27,10.0,North,5.8,-,N/A,,Overcast,10,2013-04-16 14:52:00
10:52 AM,42.1,28.0,58,30.27,10.0,NNE,10.4,-,N/A,,Mostly Cloudy,20,2013-04-16 15:52:00
11:52 AM,45.0,26.1,48,30.26,10.0,NNE,13.8,-,N/A,,Mostly Cloudy,20,2013-04-16 16:52:00
12:52 PM,46.9,26.1,44,30.24,10.0,NNE,10.4,17.3,N/A,,Scattered Clouds,20,2013-04-16 17:52:00
1:52 PM,48.9,27.0,43,30.21,10.0,NNE,10.4,-,N/A,,Mostly Cloudy,20,2013-04-16 18:52:00
2:52 PM,50.0,27.0,41,30.19,10.0,NNE,10.4,19.6,N/A,,Mostly Cloudy,20,2013-04-16 19:52:00
3:52 PM,53.1,26.1,35,30.17,10.0,NE,17.3,21.9,N/A,,Mostly Cloudy,40,2013-04-16 20:52:00
4:52 PM,53.1,28.0,38,30.16,10.0,ENE,13.8,-,N/A,,Mostly Cloudy,60,2013-04-16 21:52:00
5:52 PM,52.0,28.0,40,30.16,10.0,East,11.5,-,N/A,,Overcast,80,2013-04-16 22:52:00
6:52 PM,51.1,28.9,43,30.16,10.0,East,13.8,-,N/A,,Overcast,80,2013-04-16 23:52:00
7:52 PM,50.0,30.0,46,30.16,10.0,ENE,10.4,-,N/A,,Overcast,70,2013-04-17 00:52:00
8:52 PM,48.9,32.0,52,30.19,10.0,East,9.2,-,N/A,,Overcast,80,2013-04-17 01:52:00
9:52 PM,48.0,32.0,54,30.19,10.0,ENE,8.1,-,N/A,,Overcast,60,2013-04-17 02:52:00
10:52 PM,48.0,33.1,56,30.18,10.0,ENE,12.7,-,N/A,,Overcast,70,2013-04-17 03:52:00
11:52 PM,48.0,33.1,56,30.17,10.0,East,12.7,-,N/A,,Overcast,80,2013-04-17 04:52:00